Air Resources Laboratory banner image
Air Resources Laboratory web site National Oceanic and Atmospheric Administration (NOAA)

nm roundup


Office: ABQ

ASUS45 KABQ 191101
RWRNM
NEW MEXICO REGIONAL WEATHER ROUNDUP
NATIONAL WEATHER SERVICE ALBUQUERQUE NM
500 AM MDT THU JUL 19 2018

NOTE: "FAIR" MEANS FEW OR NO CLOUDS BELOW 12,000 FEET AGL WITH NO
       SIGNIFICANT WEATHER OR OBSTRUCTIONS TO VISION.

      THIS PRODUCT IS RELEASED AS TWO VERSIONS.  ONE VERSION NEAR
      THE TOP OF THE HOUR CONTAINING PRELIMINARY DATA FROM ALBUQUERQUE
      AND OTHER STATIONS.  A FINAL VERSION WITH ADDITIONAL DATA IS
      ISSUED ABOUT 10 MINUTES AFTER THE HOUR.

NMZ501-503-504-510>518-191200-
NORTHWEST PLATEAU/NORTHCENTRAL MOUNTAINS

CITY           SKY/WX    TMP DP  RH WIND       PRES   REMARKS
FARMINGTON     FAIR      68  50  52 E7        30.16S
LOS ALAMOS     FAIR      69  40  34 SW6       30.31R
SANTA FE       FAIR      61  47  59 CALM      30.22S
ANGEL FIRE     FAIR      46  45  95 CALM      30.43R

$$
NMZ402-403-502-505>509-191200-
WESTCENTRAL MOUNTAINS/SOUTHWEST MOUNTAINS

CITY           SKY/WX    TMP DP  RH WIND       PRES   REMARKS
GALLUP         FAIR      63  54  72 S3        30.29R
GRANTS         FAIR      59  50  70 CALM      30.31R
SILVER CITY    FAIR      67  54  63 NW8       30.18S

$$
NMZ407-409-411-412-191200-
SOUTHERN DESERTS

CITY           SKY/WX    TMP DP  RH WIND       PRES   REMARKS
DEMING         FAIR      74  61  63 W6        30.09S
LAS CRUCES     FAIR      76  54  45 W10       30.09R
ALAMOGORDO     FAIR      77  46  33 CALM      30.06S
T OR C         FAIR      78  51  38 NW7       30.11R

$$
NMZ519>523-191200-
CENTRAL VALLEYS/CENTRAL HIGHLANDS

CITY           SKY/WX    TMP DP  RH WIND       PRES   REMARKS
ALBUQUERQUE    MOCLDY    70  53  54 SE8       30.17R
DOUBLE EAGLE   FAIR      66  49  52 W6        30.21R
CLINES CORNERS FAIR      63  49  60 W12       30.28R
BELEN          NOT AVBL
SOCORRO        FAIR      72  49  44 N5        30.12S

$$
NMZ524>526-539-540-191200-
SOUTHCENTRAL MOUNTAINS

CITY           SKY/WX    TMP DP  RH WIND       PRES   REMARKS
RUIDOSO        NOT AVBL

$$
NMZ527>531-191200-
NORTHEAST HIGHLANDS/NORTHEAST PLAINS

CITY           SKY/WX    TMP DP  RH WIND       PRES   REMARKS
LAS VEGAS      FAIR      59  49  69 NE8       30.26R
RATON          NOT AVBL
CLAYTON        FAIR      64  62  93 W5        30.08F

$$
NMZ532>537-191200-
EASTCENTRAL PLAINS

CITY           SKY/WX    TMP DP  RH WIND       PRES   REMARKS
TUCUMCARI      FAIR      72  54  53 NW5       29.99S
CANNON AFB     NOT AVBL
CLOVIS AIRPORT FAIR      67  57  70 SW6       30.05S

$$
NMZ028-029-538-191200-
SOUTHEAST PLAINS

CITY           SKY/WX    TMP DP  RH WIND       PRES   REMARKS
ROSWELL        FAIR      79  49  34 SW5       29.98R
ARTESIA        FAIR      79  48  34 S7        29.99R
CARLSBAD       FAIR      74  53  48 S6        29.97R
HOBBS          FAIR      79  48  34 S9        30.03S


$$


ASUS45 KABQ 191110
RWRNM
NEW MEXICO REGIONAL WEATHER ROUNDUP
NATIONAL WEATHER SERVICE ALBUQUERQUE NM
500 AM MDT THU JUL 19 2018

NOTE: "FAIR" MEANS FEW OR NO CLOUDS BELOW 12,000 FEET AGL WITH NO
       SIGNIFICANT WEATHER OR OBSTRUCTIONS TO VISION.

      THIS PRODUCT IS RELEASED AS TWO VERSIONS.  ONE VERSION NEAR
      THE TOP OF THE HOUR CONTAINING PRELIMINARY DATA FROM ALBUQUERQUE
      AND OTHER STATIONS.  A FINAL VERSION WITH ADDITIONAL DATA IS
      ISSUED ABOUT 10 MINUTES AFTER THE HOUR.

NMZ501-503-504-510>518-191200-
NORTHWEST PLATEAU/NORTHCENTRAL MOUNTAINS

CITY           SKY/WX    TMP DP  RH WIND       PRES   REMARKS
FARMINGTON     FAIR      68  50  52 E7        30.16S
LOS ALAMOS     FAIR      69  40  34 SW6       30.31R
SANTA FE       FAIR      61  47  59 CALM      30.22S
ANGEL FIRE     FAIR      46  45  95 CALM      30.43R

$$
NMZ402-403-502-505>509-191200-
WESTCENTRAL MOUNTAINS/SOUTHWEST MOUNTAINS

CITY           SKY/WX    TMP DP  RH WIND       PRES   REMARKS
GALLUP         FAIR      63  54  72 S3        30.29R
GRANTS         FAIR      59  50  70 CALM      30.31R
SILVER CITY    FAIR      67  54  63 NW8       30.18S

$$
NMZ407-409-411-412-191200-
SOUTHERN DESERTS

CITY           SKY/WX    TMP DP  RH WIND       PRES   REMARKS
DEMING         FAIR      74  61  63 W6        30.09S
LAS CRUCES     FAIR      76  54  45 W10       30.09R
ALAMOGORDO     FAIR      77  46  33 CALM      30.06S
T OR C         FAIR      78  51  38 NW7       30.11R

$$
NMZ519>523-191200-
CENTRAL VALLEYS/CENTRAL HIGHLANDS

CITY           SKY/WX    TMP DP  RH WIND       PRES   REMARKS
ALBUQUERQUE    MOCLDY    70  53  54 SE8       30.17R
DOUBLE EAGLE   FAIR      66  49  52 W6        30.21R
MORIARTY ARPT  FAIR      60  52  74 CALM      30.23S
CLINES CORNERS FAIR      63  49  60 W12       30.28R
BELEN          FAIR      67  53  61 CALM      30.15S
SOCORRO        FAIR      72  49  44 N5        30.12S

$$
NMZ524>526-539-540-191200-
SOUTHCENTRAL MOUNTAINS

CITY           SKY/WX    TMP DP  RH WIND       PRES   REMARKS
RUIDOSO        NOT AVBL

$$
NMZ527>531-191200-
NORTHEAST HIGHLANDS/NORTHEAST PLAINS

CITY           SKY/WX    TMP DP  RH WIND       PRES   REMARKS
LAS VEGAS      FAIR      59  49  69 NE8       30.26R
RATON          NOT AVBL
CLAYTON        FAIR      64  62  93 W5        30.08F

$$
NMZ532>537-191200-
EASTCENTRAL PLAINS

CITY           SKY/WX    TMP DP  RH WIND       PRES   REMARKS
TUCUMCARI      FAIR      72  54  53 NW5       29.99S
CANNON AFB     NOT AVBL
CLOVIS AIRPORT FAIR      67  57  70 SW6       30.05S

$$
NMZ028-029-538-191200-
SOUTHEAST PLAINS

CITY           SKY/WX    TMP DP  RH WIND       PRES   REMARKS
ROSWELL        FAIR      79  49  34 SW5       29.98R
ARTESIA        FAIR      79  48  34 S7        29.99R
CARLSBAD       FAIR      74  53  48 S6        29.97R
HOBBS          FAIR      79  48  34 S9        30.03S


$$